カタログに戻る

TITAN 34D TRANSTAGE DEB

運用中GTO
NORAD 23040·DEBRIS·🇺🇸 United States

打ち上げ Sep 2, 1988 から Cape Canaveral Space Force Station

Loading…

TLE

経年Source: Space-Track

元期: Sep 14, 2026, 08:31 UTC

1 23040U 88077K   26257.35543065  .00000251  00000-0  99106-3 0  9998
2 23040  27.2647 355.3712 7302792 355.5780   0.4893  2.19069966 58801

AllMySatでTITAN 34D TRANSTAGE DEBをリアルタイム追跡

Download on the App Store